ASY223 OMSJ-OIZC

Flight info

Callsign ASY223
Flight time 0h 44m
Altitude 25000
Route OMSJ IVUR1R IVURO DCT KUSEN DCT LALDO DCT GIDIL DCT IMLOT DCT KATUS DCT PEDEX DCT EGNUX EGNU1D0 OIZC
Aircraft C17/H-SDFGHIRWYLB1/LB1

Departure

Time 2026-05-05 07:34
Airport Sharjah International Airport (OMSJ)

Arrival

Time 2026-05-05 08:18
Airport Chabahar Konarak International Airport (OIZC)
Time Latitude Longitude Altitude Speed Heading
2026-05-05 07:33 25.32228 55.53289 99 ft 0 kts 302°
2026-05-05 07:33 25.32269 55.53218 99 ft 45 kts 302°
2026-05-05 07:33 25.32621 55.52620 96 ft 136 kts 303°
2026-05-05 07:34 25.33231 55.51545 246 ft 187 kts 303°
2026-05-05 07:34 25.33950 55.50296 950 ft 195 kts 303°
2026-05-05 07:34 25.34630 55.49102 1800 ft 219 kts 302°
2026-05-05 07:34 25.35478 55.47597 2990 ft 239 kts 303°
2026-05-05 07:35 25.36377 55.46026 4470 ft 242 kts 303°
2026-05-05 07:35 25.37259 55.44483 6195 ft 229 kts 303°
2026-05-05 07:35 25.38172 55.42909 7180 ft 264 kts 305°
2026-05-05 07:35 25.39538 55.41586 8505 ft 246 kts 345°
2026-05-05 07:36 25.41107 55.41677 10240 ft 233 kts 15°
2026-05-05 07:36 25.42790 55.42115 10880 ft 265 kts 14°
2026-05-05 07:36 25.44712 55.42697 11427 ft 297 kts 26°
2026-05-05 07:36 25.46047 55.44134 13617 ft 252 kts 64°
2026-05-05 07:37 25.46418 55.45882 15448 ft 219 kts 82°
2026-05-05 07:37 25.46555 55.47066 15737 ft 251 kts 85°
2026-05-05 07:37 25.46512 55.49202 15674 ft 305 kts 92°
2026-05-05 07:37 25.46384 55.52692 15814 ft 371 kts 91°
2026-05-05 07:38 25.46312 55.54647 16022 ft 395 kts 95°
2026-05-05 07:38 25.45824 55.57727 16774 ft 419 kts 102°
2026-05-05 07:38 25.45156 55.60958 17594 ft 441 kts 103°
2026-05-05 07:38 25.44455 55.64341 18455 ft 460 kts 103°
2026-05-05 07:39 25.43736 55.67860 19348 ft 475 kts 103°
2026-05-05 07:39 25.43000 55.71472 20317 ft 488 kts 103°
2026-05-05 07:39 25.42242 55.75180 21481 ft 492 kts 103°
2026-05-05 07:39 25.41538 55.78646 24490 ft 425 kts 103°
2026-05-05 07:40 25.40915 55.81740 26345 ft 429 kts 103°
2026-05-05 07:40 25.40220 55.85185 25401 ft 492 kts 103°
2026-05-05 07:40 25.39470 55.88981 25699 ft 516 kts 103°
2026-05-05 07:40 25.38705 55.92884 26474 ft 528 kts 103°
2026-05-05 07:41 25.37909 55.96934 26499 ft 539 kts 103°
2026-05-05 07:41 25.37121 56.00952 26500 ft 530 kts 103°
2026-05-05 07:41 25.36345 56.04912 26491 ft 527 kts 103°
2026-05-05 07:41 25.35570 56.08866 26499 ft 523 kts 103°
2026-05-05 07:42 25.34803 56.12779 26549 ft 519 kts 103°
2026-05-05 07:42 25.34041 56.16674 26553 ft 516 kts 103°
2026-05-05 07:42 25.33287 56.20530 26719 ft 508 kts 103°
2026-05-05 07:42 25.32564 56.24243 27800 ft 481 kts 103°
2026-05-05 07:43 25.31859 56.27870 27721 ft 486 kts 103°
2026-05-05 07:43 25.31144 56.31537 27615 ft 489 kts 103°
2026-05-05 07:43 25.30425 56.35222 27483 ft 493 kts 103°
2026-05-05 07:43 25.29705 56.38939 27373 ft 495 kts 101°
2026-05-05 07:44 25.29233 56.42716 27376 ft 495 kts 95°
2026-05-05 07:44 25.28994 56.46462 27374 ft 495 kts 93°
2026-05-05 07:44 25.28850 56.50272 27366 ft 495 kts 92°
2026-05-05 07:44 25.28750 56.54066 27367 ft 494 kts 91°
2026-05-05 07:45 25.28669 56.57869 27372 ft 494 kts 91°
2026-05-05 07:45 25.28597 56.61653 27369 ft 494 kts 91°
2026-05-05 07:45 25.28529 56.65454 27366 ft 493 kts 91°
2026-05-05 07:45 25.28461 56.69237 27365 ft 493 kts 91°
2026-05-05 07:46 25.28393 56.73030 27364 ft 493 kts 91°
2026-05-05 07:46 25.28326 56.76812 27364 ft 493 kts 91°
2026-05-05 07:46 25.28300 56.78286 27363 ft 493 kts 91°
2026-05-05 07:47 25.28283 56.79247 27357 ft 493 kts 91°
2026-05-05 07:47 25.28236 56.82045 27358 ft 492 kts 91°
2026-05-05 07:48 25.28183 56.85469 27363 ft 492 kts 91°
2026-05-05 07:48 25.28117 56.89244 27362 ft 492 kts 91°
2026-05-05 07:48 25.28046 56.93028 27362 ft 492 kts 91°
2026-05-05 07:49 25.27975 56.96806 27358 ft 492 kts 91°
2026-05-05 07:49 25.27904 57.00585 27359 ft 492 kts 91°
2026-05-05 07:49 25.27834 57.04357 27359 ft 492 kts 91°
2026-05-05 07:49 25.27763 57.08140 27362 ft 492 kts 91°
2026-05-05 07:50 25.27693 57.11912 27368 ft 492 kts 91°
2026-05-05 07:50 25.27622 57.15701 27367 ft 492 kts 91°
2026-05-05 07:50 25.27551 57.19480 27365 ft 492 kts 91°
2026-05-05 07:50 25.27462 57.23264 27367 ft 492 kts 91°
2026-05-05 07:51 25.27336 57.27034 27366 ft 492 kts 92°
2026-05-05 07:51 25.27174 57.30808 27366 ft 492 kts 93°
2026-05-05 07:51 25.26974 57.34587 27366 ft 492 kts 94°
2026-05-05 07:51 25.26738 57.38353 27371 ft 492 kts 94°
2026-05-05 07:52 25.26469 57.42081 27373 ft 492 kts 95°
2026-05-05 07:52 25.26156 57.45887 27364 ft 492 kts 95°
2026-05-05 07:52 25.25860 57.49658 27365 ft 492 kts 94°
2026-05-05 07:52 25.25655 57.53369 27361 ft 492 kts 93°
2026-05-05 07:53 25.25488 57.57142 27360 ft 491 kts 92°
2026-05-05 07:53 25.25362 57.60913 27361 ft 491 kts 91°
2026-05-05 07:53 25.25263 57.64677 27360 ft 491 kts 91°
2026-05-05 07:53 25.25174 57.68454 27370 ft 491 kts 91°
2026-05-05 07:54 25.25086 57.72228 27368 ft 491 kts 91°
2026-05-05 07:54 25.24999 57.76012 27368 ft 491 kts 91°
2026-05-05 07:54 25.24913 57.79782 27368 ft 492 kts 91°
2026-05-05 07:54 25.24826 57.83553 27366 ft 492 kts 91°
2026-05-05 07:55 25.24741 57.87325 27371 ft 492 kts 91°
2026-05-05 07:55 25.24655 57.91102 27373 ft 492 kts 91°
2026-05-05 07:55 25.24568 57.94882 27370 ft 492 kts 91°
2026-05-05 07:55 25.24481 57.98659 27371 ft 492 kts 91°
2026-05-05 07:56 25.24395 58.02433 27370 ft 492 kts 91°
2026-05-05 07:56 25.24307 58.06211 27369 ft 492 kts 91°
2026-05-05 07:56 25.24220 58.09987 27370 ft 492 kts 91°
2026-05-05 07:56 25.24133 58.13764 27371 ft 492 kts 91°
2026-05-05 07:57 25.24045 58.17551 27367 ft 492 kts 91°
2026-05-05 07:57 25.23958 58.21324 27372 ft 492 kts 91°
2026-05-05 07:57 25.23868 58.25100 27370 ft 492 kts 91°
2026-05-05 07:57 25.23777 58.28881 27370 ft 493 kts 91°
2026-05-05 07:58 25.23685 58.32668 27371 ft 493 kts 91°
2026-05-05 07:58 25.23594 58.36448 27373 ft 493 kts 91°
2026-05-05 07:58 25.23503 58.40239 27372 ft 493 kts 91°
2026-05-05 07:58 25.23411 58.44029 27364 ft 493 kts 91°
2026-05-05 07:59 25.23320 58.47819 27373 ft 493 kts 91°
2026-05-05 07:59 25.23226 58.51591 27370 ft 493 kts 91°
2026-05-05 07:59 25.23129 58.55380 27372 ft 493 kts 91°
2026-05-05 07:59 25.23033 58.59108 27372 ft 493 kts 91°
2026-05-05 08:00 25.22935 58.62884 27362 ft 492 kts 91°
2026-05-05 08:00 25.22836 58.66668 27371 ft 492 kts 91°
2026-05-05 08:00 25.22778 58.70448 27370 ft 492 kts 89°
2026-05-05 08:00 25.22814 58.74223 27370 ft 492 kts 87°
2026-05-05 08:01 25.22875 58.78004 27371 ft 492 kts 89°
2026-05-05 08:01 25.22850 58.81784 27372 ft 492 kts 90°
2026-05-05 08:01 25.22784 58.85569 27358 ft 492 kts 90°
2026-05-05 08:01 25.22701 58.89339 27356 ft 492 kts 91°
2026-05-05 08:02 25.22842 58.93104 27363 ft 490 kts 81°
2026-05-05 08:02 25.23444 58.96802 27372 ft 488 kts 76°
2026-05-05 08:02 25.24242 59.00438 27373 ft 487 kts 73°
2026-05-05 08:02 25.25123 59.04056 27370 ft 487 kts 72°
2026-05-05 08:03 25.26037 59.07655 27370 ft 487 kts 72°
2026-05-05 08:03 25.26965 59.11250 27369 ft 487 kts 72°
2026-05-05 08:03 25.27898 59.14842 27370 ft 487 kts 72°
2026-05-05 08:03 25.28834 59.18432 27371 ft 487 kts 72°
2026-05-05 08:04 25.29773 59.22031 27367 ft 486 kts 72°
2026-05-05 08:04 25.30710 59.25625 27367 ft 486 kts 72°
2026-05-05 08:04 25.31645 59.29207 27368 ft 481 kts 72°
2026-05-05 08:04 25.32554 59.32691 27169 ft 463 kts 71°
2026-05-05 08:05 25.33519 59.36106 25682 ft 474 kts 70°
2026-05-05 08:05 25.34543 59.39657 23910 ft 494 kts 70°
2026-05-05 08:05 25.35264 59.43371 22672 ft 492 kts 89°
2026-05-05 08:05 25.36132 59.46765 22422 ft 445 kts 45°
2026-05-05 08:06 25.38286 59.49135 21386 ft 436 kts 45°
2026-05-05 08:06 25.40134 59.51605 20353 ft 411 kts 49°
2026-05-05 08:06 25.41385 59.54382 19752 ft 400 kts 76°
2026-05-05 08:06 25.42381 59.57171 18817 ft 382 kts 58°
2026-05-05 08:07 25.43730 59.59765 17393 ft 395 kts 56°
2026-05-05 08:07 25.45113 59.62367 16742 ft 383 kts 58°
2026-05-05 08:07 25.46407 59.64691 16280 ft 317 kts 56°
2026-05-05 08:07 25.47595 59.66743 15567 ft 318 kts 56°
2026-05-05 08:08 25.48783 59.68801 14827 ft 319 kts 56°
2026-05-05 08:08 25.50049 59.70775 13705 ft 290 kts 72°
2026-05-05 08:08 25.51336 59.72644 11478 ft 329 kts 53°
2026-05-05 08:08 25.52814 59.74760 9982 ft 350 kts 68°
2026-05-05 08:09 25.53965 59.76849 9457 ft 302 kts 60°
2026-05-05 08:09 25.55068 59.78737 8709 ft 284 kts 57°
2026-05-05 08:09 25.55958 59.80551 8313 ft 262 kts 86°
2026-05-05 08:09 25.55153 59.82263 6483 ft 285 kts 155°
2026-05-05 08:10 25.52979 59.82281 3207 ft 368 kts 186°
2026-05-05 08:10 25.50486 59.82544 2618 ft 344 kts 150°
2026-05-05 08:10 25.49451 59.84613 2251 ft 313 kts 91°
2026-05-05 08:10 25.49930 59.87038 1016 ft 325 kts 83°
2026-05-05 08:11 25.50128 59.89493 1066 ft 316 kts 90°
2026-05-05 08:11 25.50100 59.91871 1230 ft 304 kts 95°
2026-05-05 08:11 25.49723 59.94159 1198 ft 301 kts 104°
2026-05-05 08:11 25.49258 59.96400 1327 ft 294 kts 103°
2026-05-05 08:12 25.48823 59.98498 1376 ft 269 kts 104°
2026-05-05 08:12 25.48419 60.00451 1372 ft 252 kts 104°
2026-05-05 08:12 25.48038 60.02297 1339 ft 239 kts 104°
2026-05-05 08:12 25.47678 60.04062 1305 ft 230 kts 104°
2026-05-05 08:13 25.47372 60.05772 1266 ft 222 kts 102°
2026-05-05 08:13 25.47091 60.07419 1226 ft 216 kts 102°
2026-05-05 08:13 25.46920 60.09078 1216 ft 221 kts 96°
2026-05-05 08:13 25.46658 60.10779 1278 ft 227 kts 105°
2026-05-05 08:14 25.46302 60.12462 1558 ft 224 kts 104°
2026-05-05 08:14 25.45966 60.14130 1796 ft 220 kts 103°
2026-05-05 08:14 25.45639 60.15756 2027 ft 211 kts 103°
2026-05-05 08:14 25.45373 60.17287 1982 ft 194 kts 102°
2026-05-05 08:15 25.45154 60.18716 1994 ft 188 kts 100°
2026-05-05 08:15 25.44982 60.20281 1989 ft 209 kts 97°
2026-05-05 08:15 25.44869 60.21823 1975 ft 207 kts 96°
2026-05-05 08:15 25.44754 60.23523 2301 ft 229 kts 96°
2026-05-05 08:16 25.44653 60.25126 2540 ft 193 kts 95°
2026-05-05 08:16 25.44608 60.26531 2521 ft 173 kts 94°
2026-05-05 08:16 25.44587 60.27755 2325 ft 149 kts 92°
2026-05-05 08:16 25.44566 60.29021 1959 ft 180 kts 92°
2026-05-05 08:17 25.44552 60.30389 1886 ft 179 kts 92°
2026-05-05 08:17 25.44542 60.31757 1771 ft 172 kts 91°
2026-05-05 08:17 25.44534 60.33003 1483 ft 160 kts 92°
2026-05-05 08:17 25.44544 60.34248 1212 ft 160 kts 92°
2026-05-05 08:18 25.44554 60.35480 548 ft 165 kts 92°
2026-05-05 08:18 25.44563 60.36692 225 ft 147 kts 92°
2026-05-05 08:18 25.44557 60.37745 28 ft 122 kts 92°
2026-05-05 08:18 25.44541 60.38344 25 ft 46 kts 90°
2026-05-05 08:19 25.44527 60.38692 30 ft 47 kts 98°
2026-05-05 08:19 25.44399 60.38993 30 ft 40 kts 130°
2026-05-05 08:19 25.44278 60.39127 29 ft 31 kts 143°
2026-05-05 08:19 25.44144 60.39120 25 ft 17 kts 235°
2026-05-05 08:20 25.44125 60.38868 24 ft 47 kts 270°
2026-05-05 08:20 25.44130 60.38412 27 ft 60 kts 270°
2026-05-05 08:20 25.44130 60.38166 29 ft 31 kts 269°
2026-05-05 08:20 25.44019 60.38019 29 ft 26 kts 182°
2026-05-05 08:21 25.43796 60.38000 27 ft 5 kts 207°
2026-05-05 08:21 25.43781 60.37963 29 ft 14 kts 261°
2026-05-05 08:21 25.43778 60.37922 25 ft 0 kts 266°